Location: Hermaringen
(48.5952°N, 10.2585°E)
Time: 05:58:07
(UTC+00:00)

Altair - Pass Details

Date: 25 February 2026
Orbit: 1502 x 1682 km, 47.2° (Epoch: 9 March)

Event Time Altitude Azimuth Distance (km) Brightness Sun altitude
Rises 23:39:13 0° 184° (S) 4,636 - -50.2°
Reaches altitude 10° 23:43:30 10° 166° (SSE) 3,647 - -50.1°
Maximum altitude 23:49:04 18° 128° (SE) 3,065 - -50.0°
Drops below altitude 10° 23:54:38 10° 90° (E) 3,664 - -49.9°
Exits shadow 23:55:45 - 84° (E) 3,898 9.7 -49.9°
Sets 23:58:54 0° 73° (ENE) 4,666 10.3 -49.8°
